| time (UTC) | temp F | wind direction | speed MPH | gust MPH | rain 1hr in | rain 24hr in | rain mn in | humidity % | barometer mb |
| 20260505174554 | 55 | 333 | 0.0 | 4.0 | 0.06 | 0.16 | 0.15 | 92 | 1004.2 |
| 20260505173053 | 55 | 336 | 0.0 | 3.0 | 0.06 | 0.14 | 0.13 | 91 | 1004.3 |
| 20260505171553 | 56 | 295 | 0.0 | 5.0 | 0.07 | 0.13 | 0.12 | 91 | 1004.2 |
| 20260505170053 | 56 | 327 | 0.0 | 3.0 | 0.07 | 0.11 | 0.10 | 91 | 1004.2 |
| 20260505164551 | 57 | 328 | 0.0 | 4.0 | 0.06 | 0.10 | 0.08 | 91 | 1004.2 |
| 20260505163049 | 57 | 329 | 0.0 | 4.0 | 0.07 | 0.09 | 0.07 | 90 | 1004.3 |
| 20260505161550 | 58 | 328 | 1.0 | 5.0 | 0.05 | 0.07 | 0.05 | 90 | 1004.4 |
| 20260505153048 | 59 | 315 | 1.0 | 5.0 | 0.00 | 0.05 | 0.00 | 87 | 1004.6 |
| 20260505151543 | 59 | 311 | 0.0 | 2.0 | 0.00 | 0.05 | 0.00 | 86 | 1004.6 |
| 20260505124533 | 61 | 40 | 2.0 | 5.0 | 0.00 | 0.17 | 0.00 | 82 | 1005.4 |
| 20260505123042 | 61 | 36 | 1.0 | 4.0 | 0.00 | 0.17 | 0.00 | 81 | 1005.5 |
| 20260505121533 | 62 | 36 | 2.0 | 5.0 | 0.00 | 0.17 | 0.00 | 81 | 1005.4 |
| 20260505120040 | 61 | 35 | 2.0 | 5.0 | 0.00 | 0.17 | 0.00 | 81 | 1005.6 |
| 20260505114528 | 62 | 40 | 3.0 | 7.0 | 0.00 | 0.17 | 0.00 | 81 | 1005.7 |
| 20260505113027 | 62 | 42 | 3.0 | 6.0 | 0.00 | 0.17 | 0.00 | 82 | 1005.8 |
| 20260505111530 | 62 | 49 | 2.0 | 6.0 | 0.00 | 0.17 | 0.00 | 82 | 1005.8 |
| 20260505101524 | 61 | 94 | 2.0 | 4.0 | 0.00 | 0.17 | 0.00 | 84 | 1006.2 |
| 20260505100028 | 61 | 109 | 0.0 | 3.0 | 0.00 | 0.17 | 0.00 | 83 | 1006.2 |
| 20260505094520 | 61 | 109 | 2.0 | 4.0 | 0.00 | 0.17 | 0.00 | 83 | 1006.3 |
| 20260505093018 | 61 | 115 | 2.0 | 4.0 | 0.00 | 0.17 | 0.00 | 82 | 1006.4 |
| 20260505091520 | 62 | 156 | 1.0 | 5.0 | 0.00 | 0.17 | 0.00 | 82 | 1006.4 |
| 20260505090017 | 62 | 163 | 1.0 | 3.0 | 0.00 | 0.17 | 0.00 | 80 | 1006.5 |
| 20260505084513 | 61 | 163 | 1.0 | 2.0 | 0.00 | 0.17 | 0.00 | 83 | 1006.5 |
| 20260505083017 | 60 | 163 | 1.0 | 5.0 | 0.00 | 0.17 | 0.00 | 86 | 1006.5 |
| 20260505081504 | 59 | 163 | 0.0 | 1.0 | 0.00 | 0.17 | 0.00 | 90 | 1006.6 |
| 20260505080004 | 58 | 163 | 0.0 | 1.0 | 0.00 | 0.17 | 0.00 | 91 | 1006.6 |
| 20260505074558 | 58 | 163 | 0.0 | 1.0 | 0.00 | 0.17 | 0.00 | 91 | 1006.7 |
| 20260505073101 | 58 | 163 | 0.0 | 1.0 | 0.00 | 0.17 | 0.00 | 93 | 1006.9 |
| 20260505071612 | 57 | 163 | 0.0 | 2.0 | 0.00 | 0.17 | 0.00 | 94 | 1006.9 |
| 20260505070053 | 57 | 163 | 0.0 | 1.0 | 0.00 | 0.17 | 0.00 | 94 | 1007.0 |
| 20260505064547 | 56 | 163 | 0.0 | 0.0 | 0.00 | 0.17 | 0.00 | 94 | 1007.0 |
| 20260505063050 | 56 | 163 | 0.0 | 1.0 | 0.00 | 0.17 | 0.00 | 94 | 1007.1 |
| 20260505061541 | 56 | 163 | 0.0 | 0.0 | 0.00 | 0.17 | 0.00 | 94 | 1007.1 |
| 20260505060056 | 55 | 163 | 0.0 | 0.0 | 0.00 | 0.17 | 0.00 | 94 | 1007.1 |
| 20260505054538 | 55 | 165 | 0.0 | 0.0 | 0.00 | 0.17 | 0.00 | 94 | 1007.1 |
| 20260505053037 | 55 | 165 | 0.0 | 1.0 | 0.00 | 0.17 | 0.00 | 94 | 1007.1 |
| 20260505051534 | 55 | 165 | 0.0 | 3.0 | 0.00 | 0.17 | 0.00 | 94 | 1007.0 |
| 20260505041532 | 55 | 165 | 0.0 | 2.0 | 0.00 | 0.17 | 0.00 | 94 | 1007.2 |
| 20260505040027 | 55 | 165 | 0.0 | 0.0 | 0.00 | 0.17 | 0.00 | 94 | 1007.3 |
| 20260505034525 | 55 | 176 | 0.0 | 3.0 | 0.00 | 0.17 | 0.00 | 94 | 1007.4 |
| 20260505033024 | 55 | 176 | 0.0 | 0.0 | 0.00 | 0.17 | 0.00 | 94 | 1007.4 |
| 20260505031523 | 55 | 176 | 0.0 | 0.0 | 0.00 | 0.17 | 0.00 | 94 | 1007.6 |
| 20260505030022 | 55 | 176 | 0.0 | 0.0 | 0.00 | 0.17 | 0.00 | 94 | 1007.7 |
| 20260505024521 | 55 | 176 | 0.0 | 0.0 | 0.00 | 0.17 | 0.00 | 94 | 1007.8 |
| 20260505023021 | 55 | 176 | 0.0 | 0.0 | 0.00 | 0.17 | 0.00 | 94 | 1007.9 |
| 20260505021519 | 55 | 176 | 0.0 | 0.0 | 0.00 | 0.17 | 0.00 | 94 | 1008.0 |
| 20260505020025 | 55 | 176 | 0.0 | 4.0 | 0.00 | 0.17 | 0.00 | 93 | 1008.1 |
| 20260505014530 | 55 | 275 | 0.0 | 0.0 | 0.00 | 0.17 | 0.00 | 93 | 1008.0 |
| 20260505013015 | 55 | 276 | 0.0 | 0.0 | 0.00 | 0.17 | 0.00 | 93 | 1008.1 |
| 20260505011515 | 55 | 276 | 0.0 | 0.0 | 0.00 | 0.17 | 0.00 | 93 | 1008.1 |
| 20260505010013 | 55 | 276 | 0.0 | 0.0 | 0.00 | 0.17 | 0.00 | 92 | 1008.2 |
| 20260505004513 | 55 | 276 | 0.0 | 0.0 | 0.00 | 0.17 | 0.00 | 92 | 1008.5 |
| 20260505003011 | 55 | 276 | 0.0 | 0.0 | 0.00 | 0.17 | 0.00 | 92 | 1008.6 |
| 20260505001510 | 55 | 276 | 0.0 | 0.0 | 0.00 | 0.17 | 0.00 | 92 | 1008.7 |
| 20260505000011 | 55 | 276 | 0.0 | 0.0 | 0.00 | 0.17 | 0.00 | 92 | 1008.8 |
| 20260504234506 | 55 | 276 | 0.0 | 0.0 | 0.00 | 0.17 | 0.00 | 92 | 1008.9 |
| 20260504233006 | 55 | 276 | 0.0 | 0.0 | 0.00 | 0.17 | 0.00 | 93 | 1009.1 |
| 20260504231503 | 55 | 276 | 0.0 | 0.0 | 0.00 | 0.17 | 0.00 | 93 | 1009.0 |
| 20260504230100 | 56 | 277 | 0.0 | 0.0 | 0.00 | 0.17 | 0.00 | 93 | 1009.2 |
| 20260504224559 | 56 | 277 | 0.0 | 0.0 | 0.00 | 0.17 | 0.00 | 93 | 1009.3 |
| 20260504223112 | 56 | 277 | 0.0 | 0.0 | 0.00 | 0.17 | 0.00 | 93 | 1009.5 |
| 20260504221558 | 56 | 277 | 0.0 | 0.0 | 0.00 | 0.17 | 0.00 | 93 | 1009.5 |
| 20260504220054 | 56 | 277 | 0.0 | 0.0 | 0.00 | 0.17 | 0.00 | 92 | 1009.7 |
| 20260504214553 | 56 | 277 | 0.0 | 0.0 | 0.00 | 0.17 | 0.17 | 92 | 1009.8 |
| 20260504213055 | 56 | 277 | 0.0 | 0.0 | 0.00 | 0.17 | 0.17 | 92 | 1009.9 |
| 20260504211634 | 56 | 277 | 0.0 | 0.0 | 0.00 | 0.17 | 0.17 | 92 | 1010.0 |
| 20260504210054 | 56 | 277 | 0.0 | 0.0 | 0.00 | 0.17 | 0.17 | 92 | 1010.1 |
| 20260504204553 | 56 | 277 | 0.0 | 0.0 | 0.00 | 0.17 | 0.17 | 92 | 1010.2 |
| 20260504203050 | 56 | 277 | 0.0 | 2.0 | 0.00 | 0.17 | 0.17 | 92 | 1010.2 |
| 20260504201555 | 56 | 277 | 0.0 | 2.0 | 0.00 | 0.17 | 0.17 | 92 | 1010.2 |
| 20260504200053 | 56 | 277 | 0.0 | 0.0 | 0.00 | 0.17 | 0.17 | 92 | 1010.3 |
| 20260504194554 | 56 | 277 | 0.0 | 2.0 | 0.00 | 0.17 | 0.17 | 92 | 1010.2 |
| 20260504193049 | 57 | 277 | 0.0 | 0.0 | 0.00 | 0.17 | 0.17 | 91 | 1010.2 |
| 20260504191606 | 57 | 277 | 0.0 | 1.0 | 0.00 | 0.17 | 0.17 | 91 | 1010.0 |
| 20260504190059 | 57 | 277 | 0.0 | 1.0 | 0.00 | 0.17 | 0.17 | 91 | 1010.0 |
| 20260504184551 | 57 | 277 | 0.0 | 0.0 | 0.00 | 0.17 | 0.17 | 91 | 1009.9 |
| 20260504183046 | 57 | 277 | 0.0 | 1.0 | 0.00 | 0.17 | 0.17 | 90 | 1010.0 |
| 20260504181548 | 58 | 277 | 0.0 | 1.0 | 0.00 | 0.17 | 0.17 | 90 | 1010.1 |
| 20260504180045 | 58 | 277 | 0.0 | 2.0 | 0.01 | 0.17 | 0.17 | 90 | 1010.1 |